Location: Boitzum
(52.1496°N, 9.6943°E)
Time: 08:55:43
(UTC+00:00)

Cosmos 2084 - Pass Details

Date: 13 January 2026
Orbit: 536 x 564 km, 62.8° (Epoch: 19 February)

Event Time Altitude Azimuth Distance (km) Brightness Sun altitude
Exits shadow 06:26:54 - 253° (WSW) 2,383 6.1 -8.5°
Reaches altitude 10° 06:28:19 10° 258° (WSW) 1,848 5.5 -8.3°
Maximum altitude 06:32:14 39° 329° (NNW) 841 3.9 -7.8°
Drops below altitude 10° 06:36:09 10° 39° (NE) 1,840 6.2 -7.2°
Sets 06:38:29 0° 48° (NE) 2,731 7.2 -6.9°
